FENGYUN 1C DEB, 31022

Orbit data source: Space-Track

FENGYUN 1C DEB, 31022 is space debris in SSO originally from a launch on Mon, 10 May 1999 UTC launched from the Taiyaun Space Center, China (TSC). Fengyun 1C debris stems from the Chinese weather satellite Fengyun-1C, which was intentionally destroyed by a Chinese anti-satellite missile in 2007. This event dramatically increased the amount of space debris, with thousands of trackable fragments posing hazards to satellites and human spaceflight. The Fengyun 1C debris cloud has become a focal point in discussions about space sustainability and the need for international regulations to prevent the creation of new debris.

Loading next visibility...
Identifier
31022, 1999-025BDQ
Orbit
SSO
Country
Flag of CNCN / PRC
Related business
Manufacturer
Unknown
Mission
Spacecraft
Bus & Motor
Unknown
Mass
Unknown
Launch date (UTC)
1999-05-10 (27 years ago)
Launch vehicle
Unknown
Launch site
Taiyaun Space Center, China (TSC)
Object type
Payload
Rocket body
Debris
Shape & HBR
Unknown shape, 0.1 m
Radar Cross Section
Small (<0.1 m²)

Expand to show TLE details & history
Last TLE update: 11 hours ago

TLE from 11 hours ago
0 FENGYUN 1C DEB
1 31022U 99025BDQ 26169.45758767  .00000285  00000-0  25390-3 0  9993
2 31022  99.4988  62.3980 0109938 340.4904  19.2062 13.90655381646174
Epoch: 2026-06-18T10:58Z
TLE epoch observation values (Epoch: 2026-06-18T10:58:55.574Z)
Latitude
-0.00006°
Longitude
-9.03419°
Altitude
853.432 km
Speed
7.464 km/s
True Right ascension
04h 09m 35s
True Declination
0° 00' 00"
Sunlit
Object was in daylight at epoch
Visualization orbit readout
Latitude
Unknown
Longitude
Unknown
Altitude
Unknown
Speed
Unknown
Apparent Right ascension
Unknown
Apparent Declination
Unknown
Sunlit
N/A
Visualization observer readout
Local Sidereal Time
08:53:04
Azimuth
Unknown
Elevation
Unknown
Doppler factor
Unknown
Orbital elements
Apogee altitude
1,003.845 km
Perigee altitude
843.298 km
Semi-major axis
7,301.708 km
Eccentricity
0.01099
Inclination
99.4988°
RAAN
62.398°
Arg. of periapsis
340.4904°
True anomaly
19.62608°
Mean anomaly
19.2062°
Eccentric anomaly
19.41559°
Mean motion
3.47862 °/min
Orbital period
103.49 mins
BSTAR
0.0002539
Loading maneuver chart data...
Computing Atmospheric mass density...
Loading historical data...
Loading historical data...
Loading historical data...
Loading historical data...
Loading historical data...
Loading historical data...
Loading historical data...

Documentation

Showing up to 5 results
|